086  
ASUS43 KIWX 261300  
RWRIWX  
 
KIWX WEATHER ROUNDUP  
NATIONAL WEATHER SERVICE NORTHERN INDIANA  
900 AM EDT TUE MAR 26 2019  
 
NOTE: "FAIR" INDICATES FEW OR NO CLOUDS BELOW 12,000 FEET WITH NO  
SIGNIFICANT WEATHER AND/OR S TO VISIBILITY
.  
 
* THESE STATIONS ARE NOT UNDER NWS QUALITY CONTROL. THEY ALSO MAY NOT  
REPORT WEATHER SUCH AS PRECIPITATION OR FOG.
 
 
INZ001>027-261400-  
NORTHERN INDIANA  
 
CITY SKY/WX TMP DP RH WIND PRES REMARKS
 
GARY* SUNNY 36 7 30 E7 30.45R  
MICHIGAN CITY* FAIR 27 18 69 CALM 30.46R  
SOUTH BEND FAIR 29 9 43 E6 30.45R WCI 23  
ELKHART* FAIR 30 5 34 E6 30.44R WCI 24  
GOSHEN FAIR 30 11 45 NE8 30.44R WCI 22  
MONTICELLO* FAIR 29 14 53 NE5 30.43R WCI 24  
KENDALLVILLE* FAIR 28 8 41 NE8 30.42S WCI 20  
FORT WAYNE FAIR 31 15 52 NE10 30.42R WCI 22  
 

 
INZ028>050-261400-  
CENTRAL INDIANA  
 
CITY SKY/WX TMP DP RH WIND PRES REMARKS
 
LAFAYETTE FAIR 30 18 60 NE9 30.43R WCI 22  
KOKOMO* FAIR 31 18 58 NE9 30.43R WCI 23  
MUNCIE* FAIR 32 19 58 NE6 30.40R WCI 26  
INDIANAPOLIS FAIR 32 20 61 NE8 30.40R WCI 25  
 

 
MIZ043>046-050>051-056>058-064>065-071>073-077>080-261400-  
SOUTHWEST LOWER MICHIGAN  
 
CITY SKY/WX TMP DP RH WIND PRES REMARKS
 
BATTLE CREEK FAIR 28 11 48 NE7 30.44R WCI 21  
BENTON HARBOR FAIR 30 10 43 E7 30.45R WCI 23  
COLDWATER* FAIR 30 9 41 NE9 30.43R WCI 22  
HILLSDALE* FAIR 28 11 47 NE5 30.41R WCI 23  
HOLLAND FAIR 30 13 49 E5 30.46R WCI 25  
GRAND RAPIDS FAIR 28 14 55 NE3 30.45R  
KALAMAZOO FAIR 30 9 41 NE6 30.45R WCI 24  
STURGIS* FAIR 31 10 41 NE9 30.42R WCI 23  
THREE RIVERS* FAIR 30 10 43 NE7 30.45R WCI 23  
 

 
OHZ001>008-015>018-024>025-261400-  
NORTHWEST OHIO  
 
CITY SKY/WX TMP DP RH WIND PRES REMARKS
 
DEFIANCE FAIR 29 16 58 N12 30.43R WCI 19  
FINDLAY FAIR 31 21 66 N9 30.41R WCI 23  
OTTAWA* FAIR 28 19 69 NE9 30.44R WCI 20  
TOLEDO EXPRESS FAIR 30 14 51 N9 30.43R WCI 22  
LIMA FAIR 29 21 72 NE8 30.40R WCI 21  
 

 
AND FOR LAKE MICHIGAN COASTAL AND OPEN LAKE BUOY OBSERVATIONS  
 
STATION/POSITION TEMP WIND PRES VSBY WAVE
 
AIR SEA DIR/SP/G HT/PER  
(F) (DEG/KT/KT) (MB) (MI) (FT/S)  
CALUMET HARBOR 35 1030.2R  
MICHIGAN CITY 30 80/ 3/ 4 N/A  
BURNS HARBOR 32 90/ 3/ 5 1031.5R  
SAINT JOSEPH 28 80/ 3/ 4 1031.2S  
 

 

 
 
 
CLICK HERE TO GO TO PREVIOUS BULLETINS.

The Nexlab IN Page
The Nexlab OH Page
The Nexlab MI Page Main Text Page